Soldotna, AK

1:03 AM AKST on February 25, 2018 (GMT -0900)
Soldotna

Weather History for PASX - September, 2012

Change the Weather History Date:

Wednesday, September 5, 2012

  Actual Average Record
Temperature  
Mean Temperature 48 °F -  
Max Temperature 53 °F 57 °F 70 °F (1957)
Min Temperature 42 °F 40 °F 25 °F (1976)
Degree Days  
Heating Degree Days 18    
Moisture  
Dew Point 42 °F    
Average Humidity 75    
Maximum Humidity 100    
Minimum Humidity 62    
Precipitation  
Precipitation 0.00 in - - ()
Sea Level Pressure  
Sea Level Pressure 29.66 in    
Wind  
Wind Speed 6 mph (South)    
Max Wind Speed 16 mph    
Max Gust Speed 23 mph    
Visibility 10 miles    
Events      
Averages and records for this station are not official NWS values.
T = Trace of Precipitation, MM = Missing Value Source: NWS Daily Summary

Daily Weather History Graph

Daily Weather History Graph

Search for Another Location

Airport or City:

Trip Planner

Search our weather history database for the weather conditions in past years. The results will help you decide how hot, cold, wet, or windy it might be!

Date:

Astronomy

Sep. 05, 2012 Rise Set
Actual Time 7:09 AM AKDT 8:54 PM AKDT
Civil Twilight 6:24 AM AKDT 9:38 PM AKDT
Nautical Twilight 5:27 AM AKDT 10:35 PM AKDT
Astronomical Twilight 4:16 AM AKDT 11:44 PM AKDT
Moon 9:45 PM AKDT (9/5) 2:05 PM AKDT (9/5)
Length of Visible Light 15h 14m
Length of Day
13h 45m
Waning Gibbous, 75% of the Moon is Illuminated
Sep 5
Waning Gibbous
Sep 8
Last Quarter
Sep 15
New
Sep 22
First Quarter
Sep 29
Full

Hourly Weather History & Observations

Time (AKDT) Temp. Windchill Dew Point Humidity Pressure Visibility Wind Dir Wind Speed Gust Speed Precip Events Conditions
12:16 AM 48.2 °F - 42.8 °F 82% 29.56 in 10.0 mi WSW 5.8 mph - N/A   Scattered Clouds
12:36 AM 46.4 °F 45.2 °F 42.8 °F 87% 29.58 in 10.0 mi West 3.5 mph - N/A   Partly Cloudy
12:56 AM 46.4 °F - 42.8 °F 87% 29.59 in 10.0 mi Calm Calm - N/A   Clear
1:16 AM 44.6 °F - 42.8 °F 93% 29.58 in 10.0 mi Calm Calm - N/A   Clear
1:36 AM 44.6 °F - 44.6 °F 100% 29.58 in 10.0 mi Calm Calm - N/A   Clear
1:56 AM 44.6 °F - 42.8 °F 93% 29.58 in 10.0 mi Calm Calm - N/A   Clear
2:16 AM 42.8 °F 40.1 °F 42.8 °F 100% 29.59 in 10.0 mi East 4.6 mph - N/A   Clear
2:36 AM 42.8 °F - 42.8 °F 100% 29.58 in 10.0 mi Calm Calm - N/A   Partly Cloudy
2:56 AM 44.6 °F - 42.8 °F 93% 29.58 in 10.0 mi Calm Calm - N/A   Scattered Clouds
3:16 AM 44.6 °F - 44.6 °F 100% 29.58 in 10.0 mi Calm Calm - N/A   Overcast
3:36 AM 50.0 °F - 42.8 °F 76% 29.58 in 10.0 mi SSE 8.1 mph 20.7 mph N/A   Overcast
3:56 AM 50.0 °F - 41.0 °F 71% 29.57 in 10.0 mi SSE 11.5 mph - N/A   Scattered Clouds
4:16 AM 50.0 °F - 39.2 °F 66% 29.58 in 10.0 mi SSE 6.9 mph - N/A   Scattered Clouds
4:36 AM 48.2 °F - 39.2 °F 71% 29.57 in 10.0 mi SE 6.9 mph - N/A   Mostly Cloudy
4:56 AM 48.2 °F - 39.2 °F 71% 29.57 in 10.0 mi SE 5.8 mph - N/A   Overcast
5:16 AM 48.2 °F - 39.2 °F 71% 29.57 in 10.0 mi ESE 5.8 mph - N/A   Overcast
5:36 AM 48.2 °F - 39.2 °F 71% 29.57 in 10.0 mi NE 3.5 mph - N/A   Overcast
5:56 AM 44.6 °F 42.2 °F 41.0 °F 87% 29.56 in 10.0 mi ESE 4.6 mph - N/A   Overcast
6:16 AM 44.6 °F - 42.8 °F 93% 29.57 in 10.0 mi Calm Calm - N/A   Overcast
6:36 AM 48.2 °F - 41.0 °F 76% 29.57 in 10.0 mi South 4.6 mph - N/A   Overcast
6:56 AM 48.2 °F - 42.8 °F 82% 29.57 in 10.0 mi Calm Calm - N/A   Overcast
7:16 AM 48.2 °F - 42.8 °F 82% 29.57 in 10.0 mi Calm Calm - N/A   Overcast
7:36 AM 48.2 °F - 42.8 °F 82% 29.57 in 10.0 mi Calm Calm - N/A   Overcast
7:56 AM 48.2 °F - 42.8 °F 82% 29.57 in 10.0 mi Calm Calm - N/A   Overcast
8:16 AM 48.2 °F - 42.8 °F 82% 29.57 in 10.0 mi ESE 3.5 mph - N/A   Overcast
8:36 AM 48.2 °F - 42.8 °F 82% 29.58 in 8.0 mi Calm Calm - N/A   Overcast
8:56 AM 50.0 °F - 42.8 °F 76% 29.58 in 10.0 mi SSE 3.5 mph - N/A   Mostly Cloudy
9:16 AM 51.8 °F - 42.8 °F 71% 29.58 in 10.0 mi SSE 3.5 mph - N/A   Overcast
9:36 AM 51.8 °F - 44.6 °F 76% 29.59 in 10.0 mi SSE 4.6 mph - N/A   Overcast
9:56 AM 51.8 °F - 42.8 °F 71% 29.59 in 5.0 mi SSE 5.8 mph - N/A   Overcast
10:16 AM 51.8 °F - 44.6 °F 76% 29.59 in 10.0 mi SE 5.8 mph - N/A   Overcast
10:36 AM 51.8 °F - 44.6 °F 76% 29.60 in 10.0 mi SSE 3.5 mph - N/A   Overcast
10:56 AM 51.8 °F - 44.6 °F 76% 29.61 in 10.0 mi SE 5.8 mph - N/A   Overcast
11:16 AM 53.6 °F - 44.6 °F 72% 29.61 in 10.0 mi South 4.6 mph - N/A   Overcast
11:36 AM 53.6 °F - 42.8 °F 67% 29.62 in 10.0 mi SSW 9.2 mph 17.3 mph N/A   Overcast
11:56 AM 53.6 °F - 42.8 °F 67% 29.63 in 10.0 mi South 8.1 mph - N/A   Overcast
12:16 PM 53.6 °F - 42.8 °F 67% 29.63 in 10.0 mi South 8.1 mph 18.4 mph N/A   Overcast
12:36 PM 53.6 °F - 42.8 °F 67% 29.64 in 10.0 mi South 6.9 mph - N/A   Overcast
12:56 PM 53.6 °F - 42.8 °F 67% 29.65 in 10.0 mi SSW 10.4 mph 20.7 mph N/A   Mostly Cloudy
1:16 PM 53.6 °F - 42.8 °F 67% 29.65 in 10.0 mi South 13.8 mph 19.6 mph N/A   Overcast
1:36 PM 53.6 °F - 42.8 °F 67% 29.66 in 10.0 mi South 13.8 mph 19.6 mph N/A   Overcast
1:56 PM 53.6 °F - 42.8 °F 67% 29.66 in 10.0 mi South 13.8 mph 21.9 mph N/A   Overcast
2:16 PM 53.6 °F - 44.6 °F 72% 29.67 in 10.0 mi SSW 13.8 mph 19.6 mph N/A   Overcast
2:36 PM 53.6 °F - 42.8 °F 67% 29.68 in 10.0 mi SSW 10.4 mph 19.6 mph N/A   Overcast
2:56 PM 53.6 °F - 44.6 °F 72% 29.69 in 10.0 mi SW 11.5 mph 16.1 mph N/A   Overcast
3:16 PM 53.6 °F - 44.6 °F 72% 29.69 in 9.0 mi SW 11.5 mph 20.7 mph N/A   Overcast
3:36 PM 53.6 °F - 44.6 °F 72% 29.70 in 10.0 mi SW 13.8 mph 18.4 mph N/A   Overcast
3:56 PM 53.6 °F - 44.6 °F 72% 29.70 in 10.0 mi SSW 8.1 mph - N/A   Overcast
4:16 PM 53.6 °F - 44.6 °F 72% 29.70 in 10.0 mi South 9.2 mph 18.4 mph N/A   Overcast
4:36 PM 53.6 °F - 42.8 °F 67% 29.71 in 10.0 mi SSW 9.2 mph - N/A   Overcast
4:56 PM 53.6 °F - 42.8 °F 67% 29.71 in 10.0 mi South 12.7 mph 16.1 mph N/A   Overcast
5:16 PM 53.6 °F - 44.6 °F 72% 29.72 in 10.0 mi SW 13.8 mph 18.4 mph N/A   Overcast
5:36 PM 53.6 °F - 42.8 °F 67% 29.72 in 10.0 mi South 12.7 mph 19.6 mph N/A   Mostly Cloudy
5:56 PM 53.6 °F - 44.6 °F 72% 29.73 in 10.0 mi SSW 11.5 mph 18.4 mph N/A   Mostly Cloudy
6:16 PM 53.6 °F - 44.6 °F 72% 29.73 in 10.0 mi SSW 11.5 mph 17.3 mph N/A   Mostly Cloudy
6:36 PM 53.6 °F - 41.0 °F 62% 29.74 in 10.0 mi SW 16.1 mph 23.0 mph N/A   Mostly Cloudy
6:56 PM 53.6 °F - 42.8 °F 67% 29.75 in 10.0 mi SSW 13.8 mph 23.0 mph N/A   Mostly Cloudy
7:16 PM 53.6 °F - 42.8 °F 67% 29.75 in 10.0 mi SSW 10.4 mph 19.6 mph N/A   Scattered Clouds
7:36 PM 51.8 °F - 41.0 °F 67% 29.76 in 10.0 mi SSW 9.2 mph 20.7 mph N/A   Scattered Clouds
7:56 PM 51.8 °F - 39.2 °F 62% 29.76 in 10.0 mi SSW 10.4 mph 19.6 mph N/A   Partly Cloudy
8:16 PM 51.8 °F - 39.2 °F 62% 29.77 in 10.0 mi SSW 10.4 mph 18.4 mph N/A   Mostly Cloudy
8:36 PM 50.0 °F - 41.0 °F 71% 29.78 in 10.0 mi SSW 9.2 mph 19.6 mph N/A   Mostly Cloudy
8:56 PM 50.0 °F - 41.0 °F 71% 29.79 in 10.0 mi South 10.4 mph 17.3 mph N/A   Clear
9:16 PM 50.0 °F - 41.0 °F 71% 29.80 in 10.0 mi South 10.4 mph - N/A   Scattered Clouds
9:36 PM 48.2 °F - 41.0 °F 76% 29.81 in 10.0 mi South 9.2 mph - N/A   Mostly Cloudy
9:56 PM 48.2 °F - 41.0 °F 76% 29.81 in 10.0 mi South 15.0 mph 20.7 mph N/A   Partly Cloudy
10:16 PM 48.2 °F - 41.0 °F 76% 29.82 in 10.0 mi South 10.4 mph 17.3 mph N/A   Clear
10:36 PM 48.2 °F - 41.0 °F 76% 29.83 in 10.0 mi SW 5.8 mph 17.3 mph N/A   Clear
10:56 PM 48.2 °F - 41.0 °F 76% 29.84 in 10.0 mi SSW 9.2 mph 16.1 mph N/A   Clear
11:16 PM 48.2 °F - 41.0 °F 76% 29.84 in 10.0 mi SSW 9.2 mph 19.6 mph N/A   Clear
11:36 PM 48.2 °F - 39.2 °F 71% 29.85 in 10.0 mi South 9.2 mph 19.6 mph N/A   Clear
11:56 PM 48.2 °F - 39.2 °F 71% 29.86 in 10.0 mi SSW 10.4 mph 17.3 mph N/A   Clear